TimeEDT,TemperatureF,Dew PointF,Humidity,Sea Level PressureIn,VisibilityMPH,Wind Direction,Wind SpeedMPH,Gust SpeedMPH,PrecipitationIn,Events,Conditions,WindDirDegrees,DateUTC
12:15 AM,70.3,-9999,N/A,30.20,10.0,Calm,Calm,-,N/A,Rain,Light Rain,0,2012-10-04 04:15:00
12:35 AM,70.3,-9999,N/A,30.19,7.0,Calm,Calm,-,N/A,,Light Drizzle,0,2012-10-04 04:35:00
12:55 AM,70.2,-9999,N/A,30.20,5.0,Calm,Calm,-,N/A,,Drizzle,0,2012-10-04 04:55:00
1:15 AM,70.0,-9999,N/A,30.19,5.0,Calm,Calm,-,N/A,Rain,Light Rain,0,2012-10-04 05:15:00
1:35 AM,70.0,-9999,N/A,30.20,5.0,Calm,Calm,-,N/A,Rain,Light Rain,0,2012-10-04 05:35:00
1:55 AM,69.8,-9999,N/A,30.19,5.0,Calm,Calm,-,N/A,,Light Drizzle,0,2012-10-04 05:55:00
2:15 AM,69.8,-9999,N/A,30.19,10.0,Calm,Calm,-,N/A,,Light Drizzle,0,2012-10-04 06:15:00
2:35 AM,69.8,-9999,N/A,30.20,7.0,Calm,Calm,-,N/A,Rain,Light Rain,0,2012-10-04 06:35:00
2:55 AM,69.8,-9999,N/A,30.19,5.0,East,3.5,-,N/A,Rain,Light Rain,100,2012-10-04 06:55:00
3:15 AM,69.1,-9999,N/A,30.18,7.0,East,3.5,-,N/A,Rain,Light Rain,100,2012-10-04 07:15:00
3:35 AM,68.5,-9999,N/A,30.18,10.0,Calm,Calm,-,N/A,Rain,Light Rain,0,2012-10-04 07:35:00
3:55 AM,68.7,-9999,N/A,30.17,10.0,NNW,3.5,-,N/A,Rain,Light Rain,340,2012-10-04 07:55:00
4:15 AM,68.5,-9999,N/A,30.18,10.0,Calm,Calm,-,N/A,Rain,Light Rain,0,2012-10-04 08:15:00
4:35 AM,68.4,-9999,N/A,30.18,7.0,Calm,Calm,-,N/A,Rain,Light Rain,0,2012-10-04 08:35:00
4:55 AM,68.4,-9999,N/A,30.18,7.0,Calm,Calm,-,N/A,Rain,Light Rain,0,2012-10-04 08:55:00
5:15 AM,68.5,-9999,N/A,30.19,7.0,Calm,Calm,-,N/A,Rain,Light Rain,0,2012-10-04 09:15:00
5:35 AM,68.5,-9999,N/A,30.20,7.0,NNW,3.5,-,N/A,Rain,Light Rain,340,2012-10-04 09:35:00
5:55 AM,68.2,-9999,N/A,30.21,7.0,Calm,Calm,-,N/A,Rain,Light Rain,0,2012-10-04 09:55:00
6:15 AM,68.2,-9999,N/A,30.21,10.0,North,3.5,-,N/A,,Overcast,360,2012-10-04 10:15:00
6:35 AM,68.0,-9999,N/A,30.22,10.0,North,3.5,-,N/A,,Overcast,350,2012-10-04 10:35:00
6:55 AM,67.8,-9999,N/A,30.23,10.0,Calm,Calm,-,N/A,,Overcast,0,2012-10-04 10:55:00
7:15 AM,68.0,-9999,N/A,30.22,7.0,Calm,Calm,-,N/A,Rain,Rain,0,2012-10-04 11:15:00
7:35 AM,67.6,-9999,N/A,30.22,5.0,Calm,Calm,-,N/A,Rain,Rain,0,2012-10-04 11:35:00
7:55 AM,67.6,-9999,N/A,30.22,7.0,Calm,Calm,-,N/A,Rain,Light Rain,0,2012-10-04 11:55:00
8:15 AM,67.6,-9999,N/A,30.23,5.0,North,5.8,-,N/A,Rain,Light Rain,10,2012-10-04 12:15:00
8:35 AM,67.6,-9999,N/A,30.24,7.0,North,3.5,-,N/A,,Overcast,10,2012-10-04 12:35:00
8:55 AM,67.8,-9999,N/A,30.24,10.0,Calm,Calm,-,N/A,,Overcast,0,2012-10-04 12:55:00
9:15 AM,68.4,-9999,N/A,30.24,10.0,NNE,3.5,-,N/A,,Overcast,20,2012-10-04 13:15:00
9:35 AM,69.1,-9999,N/A,30.26,10.0,NNW,4.6,-,N/A,,Overcast,340,2012-10-04 13:35:00
9:55 AM,68.9,-9999,N/A,30.26,1.5,North,5.8,-,N/A,Rain,Rain,10,2012-10-04 13:55:00
10:15 AM,68.7,-9999,N/A,30.26,7.0,Calm,Calm,-,N/A,Rain,Light Rain,0,2012-10-04 14:15:00
10:35 AM,68.9,-9999,N/A,30.26,7.0,NNE,3.5,-,N/A,,Overcast,20,2012-10-04 14:35:00
10:55 AM,69.4,-9999,N/A,30.26,10.0,NE,4.6,-,N/A,,Overcast,40,2012-10-04 14:55:00
11:15 AM,69.6,-9999,N/A,30.26,10.0,North,4.6,-,N/A,,Overcast,360,2012-10-04 15:15:00
11:35 AM,70.0,-9999,N/A,30.26,10.0,NNE,4.6,-,N/A,,Overcast,20,2012-10-04 15:35:00
11:55 AM,70.3,-9999,N/A,30.26,10.0,North,3.5,-,N/A,Rain,Rain,10,2012-10-04 15:55:00
12:15 PM,70.9,-9999,N/A,30.26,10.0,NNE,4.6,-,N/A,,Overcast,20,2012-10-04 16:15:00
12:35 PM,71.4,-9999,N/A,30.25,10.0,NE,3.5,-,N/A,,Overcast,40,2012-10-04 16:35:00
12:55 PM,71.8,-9999,N/A,30.24,10.0,NNE,3.5,-,N/A,,Overcast,20,2012-10-04 16:55:00
1:15 PM,72.1,-9999,N/A,30.24,10.0,Calm,Calm,-,N/A,,Overcast,0,2012-10-04 17:15:00
1:35 PM,72.9,-9999,N/A,30.24,10.0,NNW,3.5,-,N/A,,Overcast,340,2012-10-04 17:35:00
1:55 PM,73.0,-9999,N/A,30.23,10.0,NNE,3.5,-,N/A,,Overcast,20,2012-10-04 17:55:00
2:15 PM,72.9,-9999,N/A,30.22,10.0,North,4.6,-,N/A,,Overcast,360,2012-10-04 18:15:00
2:55 PM,74.3,-9999,N/A,30.20,10.0,NNW,4.6,-,N/A,,Overcast,340,2012-10-04 18:55:00
3:15 PM,74.5,-9999,N/A,30.20,10.0,North,4.6,-,N/A,,Overcast,350,2012-10-04 19:15:00
3:35 PM,74.8,75.2,100,30.20,10.0,NNW,3.5,-,N/A,,Overcast,330,2012-10-04 19:35:00
3:55 PM,75.0,75.2,100,30.19,10.0,Calm,Calm,-,N/A,,Overcast,0,2012-10-04 19:55:00
4:15 PM,74.8,75.2,100,30.19,10.0,Calm,Calm,-,N/A,,Overcast,0,2012-10-04 20:15:00
4:35 PM,75.6,75.6,100,30.19,10.0,Calm,Calm,-,N/A,,Overcast,0,2012-10-04 20:35:00
4:55 PM,75.9,75.9,100,30.19,10.0,Calm,Calm,-,N/A,,Mostly Cloudy,0,2012-10-04 20:55:00
5:15 PM,75.9,75.9,100,30.18,10.0,North,3.5,-,N/A,,Mostly Cloudy,10,2012-10-04 21:15:00
5:35 PM,75.9,75.9,100,30.18,10.0,Calm,Calm,-,N/A,,Scattered Clouds,0,2012-10-04 21:35:00
5:55 PM,75.9,75.9,100,30.17,10.0,Calm,Calm,-,N/A,,Scattered Clouds,0,2012-10-04 21:55:00
6:35 PM,75.2,-9999,N/A,30.17,10.0,Calm,Calm,-,N/A,,Clear,0,2012-10-04 22:35:00
6:55 PM,74.5,-9999,N/A,30.17,10.0,Calm,Calm,-,N/A,,Clear,0,2012-10-04 22:55:00
7:15 PM,73.9,-9999,N/A,30.18,10.0,Calm,Calm,-,N/A,,Clear,0,2012-10-04 23:15:00
7:35 PM,73.2,-9999,N/A,30.18,10.0,Calm,Calm,-,N/A,,Clear,0,2012-10-04 23:35:00
7:55 PM,72.9,-9999,N/A,30.18,10.0,Calm,Calm,-,N/A,,Clear,0,2012-10-04 23:55:00
8:15 PM,72.5,-9999,N/A,30.19,10.0,Calm,Calm,-,N/A,,Clear,0,2012-10-05 00:15:00
8:35 PM,72.5,-9999,N/A,30.19,10.0,Calm,Calm,-,N/A,,Clear,0,2012-10-05 00:35:00
9:15 PM,72.3,-9999,N/A,30.20,10.0,Calm,Calm,-,N/A,,Clear,0,2012-10-05 01:15:00
9:35 PM,72.0,-9999,N/A,30.20,7.0,Calm,Calm,-,N/A,,Clear,0,2012-10-05 01:35:00
9:55 PM,71.8,-9999,N/A,30.21,10.0,Calm,Calm,-,N/A,,Clear,0,2012-10-05 01:55:00
10:15 PM,71.8,-9999,N/A,30.21,7.0,Calm,Calm,-,N/A,,Clear,0,2012-10-05 02:15:00
10:35 PM,71.6,-9999,N/A,30.21,7.0,Calm,Calm,-,N/A,,Clear,0,2012-10-05 02:35:00
10:55 PM,71.4,-9999,N/A,30.21,7.0,Calm,Calm,-,N/A,,Clear,0,2012-10-05 02:55:00
11:15 PM,71.1,-9999,N/A,30.21,7.0,Calm,Calm,-,N/A,,Clear,0,2012-10-05 03:15:00
11:35 PM,70.9,-9999,N/A,30.20,5.0,Calm,Calm,-,N/A,,Haze,0,2012-10-05 03:35:00
11:55 PM,70.5,-9999,N/A,30.19,3.0,Calm,Calm,-,N/A,,Clear,0,2012-10-05 03:55:00